Regional Weather Roundup
Issued by NWS Sioux Falls, SD

Home | Current Version | Previous Version | Graphics & Text | Print | Product List | Glossary Off
Versions: 1 2 3 4 5 6 7 8 9 10 11 12 13 14 15 16 17 18 19 20 21 22 23 24 25 26 27 28 29 30 31 32 33 34 35 36 37 38 39 40 41 42 43 44 45 46 47 48 49 50

000
ASUS43 KFSD 291010
RWRFSD

WEATHER ROUNDUP FOR SE SOUTH DAKOTA/SW MINNESOTA/NW IOWA
NATIONAL WEATHER SERVICE SIOUX FALLS SD
500 AM CDT SUN MAR 29 2015

NOTE: "FAIR" INDICATES FEW OR NO CLOUDS BELOW 12,000 FEET WITH NO
SIGNIFICANT WEATHER AND OR OBSTRUCTIONS TO VISIBILITY.


SDZ038>040-050-052>070-291100-
SOUTHEAST SOUTH DAKOTA

CITY           SKY/WX    TMP DP  RH WIND       PRES   REMARKS
CHAMBERLAIN    CLEAR     46  35  65 W12G17    29.77S
HURON          CLEAR     45  37  73 W15       29.68S
MADISON        FAIR      43  37  81 W14       29.67S
MITCHELL       CLEAR     50  39  66 W17       29.72R
SIOUX FALLS    PTCLDY    43  34  70 W6        29.68R
WINNER         FAIR      47  31  53 W16       29.82F
YANKTON        CLEAR     54  43  66 W14G20    29.76R
$$

MNZ071-072-080-081-089-090-097-098-291100-
SOUTHWEST MINNESOTA

CITY           SKY/WX    TMP DP  RH WIND       PRES   REMARKS
FAIRMONT       CLOUDY    36  28  75 S17G28    29.74S
JACKSON        CLOUDY    37  32  81 S16G22    29.71F
LUVERNE        CLEAR     41  34  75 S15       29.67F
MARSHALL       MOCLDY    39  30  70 SW16      29.64R
MONTEVIDEO     MOCLDY    41  36  81 SW13      29.61F
PIPESTONE      PTCLDY    39  34  81 SW12      29.65R
REDWOOD FALLS  CLOUDY    40  33  76 S17       29.65F
TRACY          MOCLDY    41  33  74 S23G31    29.64S
WINDOM         CLOUDY    37  32  81 S18G28    29.66F
WORTHINGTON    MOCLDY    39  30  70 S22G33    29.68F
$$

IAZ001>003-012>014-020>022-031-032-NEZ013-014-SDZ071-291100-
NORTHWEST IOWA

CITY           SKY/WX    TMP DP  RH WIND       PRES   REMARKS
CHEROKEE       CLOUDY    39  34  83 S13G22    29.76F
DENISON        CLOUDY    41  34  75 SW16G28   29.83R
ESTHERVILLE    CLOUDY    34  31  88 S21G28    29.72F WCI  22
LE MARS        MOCLDY    43  36  75 S21G29    29.74F
ORANGE CITY    PTCLDY    43  36  75 SW17G25   29.72F
SHELDON        MOCLDY    39  34  81 S25G32    29.68F
SIOUX CITY     MOCLDY    44  33  65 SW12G23   29.79F
SPENCER        CLOUDY    39  33  79 S25G32    29.72F
STORM LAKE     CLOUDY    39  34  81 S22G29    29.77F
$$

ABBREVIATIONS USED IN REMARKS
   TC - TEMPERATURE IN CELSIUS
  WCI - WIND CHILL INDEX
   HX - HEAT INDEX
  VSB - VISIBILITY




USA.gov is the U.S. government's official web portal to all federal, state and local government web resources and services.